Sturgeon Bay, WI

11:03 AM CDT on October 19, 2019 (GMT -0500)
Door County Cherryland

Weather History for KSUE - August, 2019

Change the Weather History Date:

Sunday, August 11, 2019

  Actual Average Record
Temperature  
Mean Temperature 68 °F -  
Max Temperature 75 °F 77 °F 94 °F (1944)
Min Temperature 63 °F 54 °F 40 °F (1967)
Cooling Degree Days 3    
Growing Degree Days 18 (Base 50)    
Moisture  
Dew Point 64 °F    
Average Humidity 86    
Maximum Humidity 100    
Minimum Humidity 73    
Precipitation  
Precipitation 0.00 in - - ()
Sea Level Pressure  
Sea Level Pressure 29.97 in    
Wind  
Wind Speed 5 mph (South)    
Max Wind Speed 8 mph    
Max Gust Speed -    
Visibility 8 miles    
Events      
Averages and records for this station are not official NWS values.
T = Trace of Precipitation, MM = Missing Value Source: NWS Daily Summary

Daily Weather History Graph

Daily Weather History Graph

Search for Another Location

Airport or City:

Astronomy

Aug. 11, 2019 Rise Set
Actual Time 5:46 AM CDT 8:02 PM CDT
Civil Twilight 5:14 AM CDT 8:34 PM CDT
Nautical Twilight 4:34 AM CDT 9:14 PM CDT
Astronomical Twilight 3:49 AM CDT 9:58 PM CDT
Moon 5:47 PM CDT (8/11) 2:01 AM CDT (8/11)
Length of Visible Light 15h 19m
Length of Day
14h 15m
Waxing Gibbous, 87% of the Moon is Illuminated
Aug 11
Waxing Gibbous
Aug 15
Full
Aug 23
Last Quarter
Aug 30
New
Sep 5
First Quarter

Hourly Weather History & Observations

Time (CDT) Temp. Dew Point Humidity Pressure Visibility Wind Dir Wind Speed Gust Speed Precip Events Conditions
12:56 AM 64.9 °F 55.9 °F 73% 30.00 in 10.0 mi SSW 8.1 mph - N/A   Clear
1:56 AM 63.0 °F 55.0 °F 75% 29.99 in 10.0 mi SSW 5.8 mph - N/A   Clear
2:56 AM 64.0 °F 55.9 °F 75% 29.99 in 10.0 mi SSW 6.9 mph - N/A   Clear
3:56 AM 64.9 °F 57.0 °F 75% 30.00 in 10.0 mi SSW 6.9 mph - N/A   Clear
4:56 AM 64.9 °F 59.0 °F 81% 30.01 in 10.0 mi SW 5.8 mph - N/A   Overcast
5:56 AM 64.9 °F 61.0 °F 87% 30.00 in 10.0 mi Calm Calm - N/A   Overcast
6:56 AM 64.9 °F 62.1 °F 90% 30.01 in 10.0 mi South 5.8 mph - N/A   Overcast
7:56 AM 68.0 °F 63.0 °F 84% 30.02 in 10.0 mi SSW 4.6 mph - N/A   Overcast
8:56 AM 69.1 °F 64.0 °F 84% 30.01 in 10.0 mi SSW 4.6 mph - N/A   Overcast
9:56 AM 70.0 °F 64.0 °F 81% 30.01 in 10.0 mi South 4.6 mph - N/A   Overcast
10:56 AM 71.1 °F 64.0 °F 78% 30.01 in 10.0 mi SSW 3.5 mph - N/A   Overcast
11:56 AM 72.0 °F 64.0 °F 76% 30.01 in 10.0 mi Calm Calm - N/A   Overcast
12:56 PM 73.0 °F 64.9 °F 76% 30.00 in 10.0 mi SSW 4.6 mph - N/A   Overcast
1:56 PM 72.0 °F 66.0 °F 81% 29.99 in 10.0 mi SE 8.1 mph - N/A   Overcast
2:56 PM 73.0 °F 64.9 °F 76% 29.97 in 10.0 mi SSE 4.6 mph - N/A   Overcast
3:40 PM 73.4 °F 66.2 °F 78% 29.97 in 10.0 mi South 8.1 mph - N/A   Overcast
3:56 PM 73.0 °F 66.0 °F 79% 29.96 in 10.0 mi South 5.8 mph - N/A   Overcast
4:40 PM 73.4 °F 66.2 °F 78% 29.96 in 10.0 mi South 5.8 mph - N/A   Partly Cloudy
4:56 PM 73.0 °F 66.9 °F 81% 29.95 in 10.0 mi South 5.8 mph - N/A   Scattered Clouds
5:47 PM 71.6 °F 66.2 °F 83% 29.97 in 10.0 mi SW 3.5 mph - N/A   Overcast
5:56 PM 72.0 °F 66.9 °F 84% 29.95 in 10.0 mi Calm Calm - N/A   Overcast
6:08 PM 71.6 °F 66.2 °F 83% 29.96 in 10.0 mi SSE 6.9 mph - N/A   Overcast
6:42 PM 71.6 °F 66.2 °F 83% 29.96 in 10.0 mi South 5.8 mph - N/A   Overcast
6:56 PM 70.0 °F 66.9 °F 90% 29.94 in 10.0 mi South 5.8 mph - N/A   Overcast
7:56 PM 70.0 °F 66.9 °F 90% 29.93 in 10.0 mi South 3.5 mph - N/A   Overcast
8:56 PM 69.1 °F 66.0 °F 90% 29.93 in 10.0 mi Calm Calm - N/A   Overcast
9:56 PM 66.9 °F 66.0 °F 97% 29.93 in 10.0 mi Calm Calm - N/A   Overcast
10:34 PM 64.4 °F 64.4 °F 100% 29.95 in 1.8 mi Calm Calm - N/A   Partly Cloudy
10:44 PM 64.4 °F 64.4 °F 100% 29.95 in 3.0 mi South 3.5 mph - N/A   Clear
10:56 PM 64.0 °F 64.0 °F 100% 29.94 in 3.0 mi Calm Calm - N/A   Clear
11:32 PM 64.4 °F 64.4 °F 100% 29.95 in 1.8 mi Calm Calm - N/A   Clear
11:36 PM 64.4 °F 64.4 °F 100% 29.95 in 0.8 mi Calm Calm - N/A   Clear
11:54 PM 64.4 °F 64.4 °F 100% 29.95 in 1.2 mi Calm Calm - N/A   Clear
11:56 PM 64.0 °F 64.0 °F 100% 29.94 in 1.5 mi Calm Calm - N/A   Clear